| time (UTC) | temp F | wind direction | speed MPH | gust MPH | rain 1hr in | rain 24hr in | rain mn in | humidity % | barometer mb |
| 20260505211529 | 76 | 1.0 | 9.0 | 0.00 | 0.02 | 0.01 | 44 | 1008.9 | |
| 20260505210028 | 76 | 2.0 | 6.0 | 0.00 | 0.02 | 0.01 | 44 | 1009.1 | |
| 20260505204524 | 75 | 2.0 | 6.0 | 0.00 | 0.02 | 0.01 | 51 | 1009.2 | |
| 20260505203030 | 74 | 4.0 | 8.0 | 0.00 | 0.02 | 0.01 | 48 | 1009.4 | |
| 20260505201520 | 74 | 3.0 | 7.0 | 0.00 | 0.02 | 0.01 | 49 | 1009.4 | |
| 20260505200019 | 73 | 0.0 | 6.0 | 0.00 | 0.02 | 0.01 | 50 | 1009.3 | |
| 20260505194516 | 73 | 2.0 | 6.0 | 0.00 | 0.02 | 0.01 | 52 | 1009.6 | |
| 20260505193014 | 72 | 2.0 | 7.0 | 0.00 | 0.02 | 0.01 | 55 | 1009.6 | |
| 20260505191511 | 71 | 3.0 | 6.0 | 0.00 | 0.02 | 0.01 | 58 | 1009.6 | |
| 20260505190019 | 71 | 1.0 | 6.0 | 0.01 | 0.02 | 0.01 | 59 | 1009.7 | |
| 20260505184507 | 70 | 3.0 | 6.0 | 0.01 | 0.02 | 0.01 | 60 | 1009.9 | |
| 20260505183004 | 69 | 0.0 | 5.0 | 0.01 | 0.02 | 0.01 | 61 | 1010.0 | |
| 20260505181502 | 69 | 1.0 | 6.0 | 0.01 | 0.02 | 0.01 | 59 | 1009.9 | |
| 20260505180059 | 67 | 4.0 | 8.0 | 0.00 | 0.01 | 0.00 | 59 | 1009.9 | |
| 20260505174558 | 67 | 3.0 | 8.0 | 0.00 | 0.01 | 0.00 | 61 | 1010.0 | |
| 20260505173059 | 67 | 0.0 | 5.0 | 0.00 | 0.01 | 0.00 | 64 | 1009.9 | |
| 20260505171559 | 65 | 3.0 | 7.0 | 0.00 | 0.01 | 0.00 | 68 | 1009.8 | |
| 20260505170048 | 64 | 3.0 | 8.0 | 0.00 | 0.01 | 0.00 | 69 | 1009.8 | |
| 20260505164545 | 63 | 3.0 | 7.0 | 0.00 | 0.01 | 0.00 | 70 | 1009.8 | |
| 20260505163044 | 63 | 2.0 | 7.0 | 0.00 | 0.01 | 0.00 | 70 | 1009.9 | |
| 20260505161546 | 62 | 2.0 | 5.0 | 0.00 | 0.01 | 0.00 | 73 | 1009.9 | |
| 20260505153032 | 60 | 2.0 | 4.0 | 0.00 | 0.01 | 0.00 | 74 | 1009.8 | |
| 20260505151535 | 59 | 2.0 | 3.0 | 0.00 | 0.01 | 0.00 | 76 | 1009.6 | |
| 20260505124510 | 43 | 0.0 | 1.0 | 0.00 | 0.01 | 0.00 | 92 | 1008.4 | |
| 20260505123009 | 43 | 0.0 | 2.0 | 0.00 | 0.01 | 0.00 | 93 | 1008.3 | |
| 20260505121506 | 43 | 0.0 | 1.0 | 0.00 | 0.01 | 0.00 | 92 | 1008.1 | |
| 20260505120011 | 44 | 0.0 | 1.0 | 0.00 | 0.01 | 0.00 | 92 | 1008.1 | |
| 20260505114502 | 45 | 0.0 | 1.0 | 0.00 | 0.01 | 0.00 | 92 | 1008.0 | |
| 20260505113100 | 45 | 0.0 | 1.0 | 0.00 | 0.01 | 0.00 | 92 | 1008.0 | |
| 20260505111558 | 45 | 0.0 | 0.0 | 0.00 | 0.01 | 0.00 | 91 | 1007.8 | |
| 20260505101552 | 48 | 0.0 | 1.0 | 0.00 | 0.01 | 0.00 | 91 | 1007.3 | |
| 20260505100047 | 47 | 0.0 | 1.0 | 0.00 | 0.01 | 0.00 | 90 | 1007.3 | |
| 20260505094544 | 48 | 0.0 | 2.0 | 0.00 | 0.01 | 0.00 | 90 | 1007.2 | |
| 20260505093043 | 47 | 0.0 | 0.0 | 0.00 | 0.01 | 0.00 | 89 | 1007.2 | |
| 20260505091539 | 49 | 0.0 | 2.0 | 0.00 | 0.01 | 0.00 | 89 | 1007.1 | |
| 20260505090044 | 48 | 0.0 | 1.0 | 0.00 | 0.01 | 0.00 | 89 | 1007.0 | |
| 20260505084536 | 49 | 0.0 | 0.0 | 0.00 | 0.01 | 0.00 | 89 | 1006.9 | |
| 20260505083034 | 49 | 0.0 | 3.0 | 0.00 | 0.01 | 0.00 | 87 | 1006.9 | |
| 20260505081539 | 50 | 0.0 | 0.0 | 0.00 | 0.01 | 0.00 | 88 | 1006.9 | |
| 20260505080036 | 50 | 0.0 | 1.0 | 0.00 | 0.01 | 0.00 | 85 | 1006.9 | |
| 20260505074525 | 52 | 0.0 | 2.0 | 0.00 | 0.01 | 0.00 | 84 | 1006.9 | |
| 20260505073042 | 52 | 1.0 | 2.0 | 0.00 | 0.01 | 0.00 | 84 | 1006.7 | |
| 20260505071520 | 54 | 0.0 | 0.0 | 0.00 | 0.01 | 0.00 | 80 | 1006.6 | |
| 20260505070021 | 54 | 0.0 | 2.0 | 0.00 | 0.01 | 0.00 | 78 | 1006.4 | |
| 20260505064533 | 56 | 0.0 | 0.0 | 0.00 | 0.01 | 0.01 | 77 | 1006.3 | |
| 20260505063016 | 56 | 0.0 | 0.0 | 0.00 | 0.01 | 0.01 | 75 | 1006.3 | |
| 20260505061528 | 58 | 0.0 | 0.0 | 0.00 | 0.01 | 0.01 | 71 | 1006.4 | |
| 20260505060014 | 57 | 0.0 | 3.0 | 0.00 | 0.01 | 0.01 | 71 | 1006.4 | |
| 20260505054514 | 56 | 0.0 | 3.0 | 0.00 | 0.01 | 0.01 | 72 | 1006.2 | |
| 20260505053013 | 59 | 0.0 | 3.0 | 0.00 | 0.01 | 0.01 | 65 | 1006.1 | |
| 20260505041513 | 64 | 0.0 | 3.0 | 0.00 | 0.01 | 0.01 | 55 | 1005.6 | |
| 20260505040010 | 66 | 1.0 | 3.0 | 0.00 | 0.01 | 0.01 | 54 | 1005.5 | |
| 20260505034511 | 66 | 0.0 | 1.0 | 0.01 | 0.01 | 0.01 | 49 | 1005.2 | |
| 20260505033009 | 68 | 0.0 | 4.0 | 0.01 | 0.01 | 0.01 | 48 | 1004.9 | |
| 20260505031526 | 69 | 2.0 | 8.0 | 0.01 | 0.01 | 0.01 | 46 | 1004.7 | |
| 20260505030009 | 70 | 6.0 | 14.0 | 0.01 | 0.02 | 0.01 | 45 | 1004.5 | |
| 20260505024515 | 71 | 6.0 | 11.0 | 0.00 | 0.01 | 0.00 | 42 | 1004.3 | |
| 20260505023009 | 73 | 3.0 | 9.0 | 0.00 | 0.01 | 0.00 | 42 | 1004.3 | |
| 20260505021506 | 74 | 3.0 | 11.0 | 0.00 | 0.01 | 0.00 | 40 | 1004.2 | |
| 20260505020011 | 75 | 5.0 | 12.0 | 0.00 | 0.01 | 0.00 | 36 | 1004.2 | |
| 20260505014504 | 76 | 7.0 | 13.0 | 0.00 | 0.01 | 0.00 | 34 | 1004.1 | |
| 20260505013004 | 77 | 7.0 | 19.0 | 0.00 | 0.01 | 0.00 | 33 | 1004.2 | |
| 20260505011503 | 78 | 11.0 | 17.0 | 0.00 | 0.01 | 0.00 | 32 | 1004.2 | |
| 20260505010002 | 79 | 8.0 | 17.0 | 0.00 | 0.01 | 0.00 | 32 | 1004.2 | |
| 20260505004601 | 79 | 8.0 | 16.0 | 0.00 | 0.01 | 0.00 | 32 | 1004.2 | |
| 20260505003100 | 80 | 10.0 | 16.0 | 0.00 | 0.01 | 0.00 | 31 | 1004.2 | |
| 20260505001601 | 81 | 7.0 | 13.0 | 0.00 | 0.01 | 0.00 | 30 | 1004.2 | |
| 20260505000116 | 81 | 7.0 | 13.0 | 0.00 | 0.01 | 0.00 | 32 | 1004.2 | |
| 20260504234557 | 81 | 3.0 | 10.0 | 0.00 | 0.01 | 0.00 | 31 | 1004.1 | |
| 20260504233059 | 81 | 3.0 | 11.0 | 0.00 | 0.01 | 0.00 | 40 | 1004.1 | |
| 20260504231555 | 81 | 6.0 | 11.0 | 0.00 | 0.01 | 0.00 | 37 | 1004.2 | |
| 20260504230105 | 81 | 7.0 | 12.0 | 0.00 | 0.01 | 0.00 | 36 | 1004.4 | |
| 20260504224551 | 81 | 3.0 | 11.0 | 0.00 | 0.01 | 0.00 | 32 | 1004.5 | |
| 20260504223050 | 81 | 5.0 | 11.0 | 0.00 | 0.01 | 0.00 | 35 | 1004.7 | |
| 20260504221558 | 82 | 2.0 | 10.0 | 0.00 | 0.01 | 0.00 | 32 | 1004.9 | |
| 20260504220046 | 81 | 4.0 | 9.0 | 0.00 | 0.01 | 0.00 | 32 | 1005.1 | |
| 20260504214544 | 81 | 4.0 | 10.0 | 0.00 | 0.01 | 0.00 | 31 | 1005.2 | |
| 20260504213044 | 81 | 3.0 | 10.0 | 0.00 | 0.01 | 0.00 | 30 | 1005.4 |